Simultaneous Nadir Overpasses (SNOs) Predictions

Prediction of SNOs between NOAA-19 and NPP Satellite Orbit:

Table of predicted SNOs for the next 14.0 days since TLE Epoch: 8/8/2012
Index Date (NOAA-19) Time (NOAA-19) NOAA-19 Lat,Lon Date (NPP) Time (NPP) NPP Lat,Lon Distance(km) Time Diff (sec)
1 08/09/2012 04:33:01 80.70, 63.68 08/09/2012 04:34:08 80.70, 63.62 1.05 67
2 08/09/2012 05:24:00 -80.69,-128.99 08/09/2012 05:24:52 -80.69,-128.87 2.15 52
3 08/09/2012 06:15:03 80.64, 39.24 08/09/2012 06:15:35 80.64, 39.23 0.17 32
4 08/09/2012 07:06:02 -80.63,-153.43 08/09/2012 07:06:19 -80.63,-153.26 3.11 17
5 08/09/2012 07:57:06 80.60, 14.46 08/09/2012 07:57:03 80.60, 14.50 0.83 3
6 08/09/2012 08:48:02 -80.53,-177.21 08/09/2012 08:47:45 -80.54,-177.33 2.48 17
7 08/09/2012 09:39:08 80.53, -10.00 08/09/2012 09:38:30 80.53, -9.90 1.79 38
8 08/09/2012 10:30:03 -80.44, 158.65 08/09/2012 10:29:11 -80.44, 158.57 1.50 52
9 08/09/2012 11:21:09 80.44, -34.14 08/09/2012 11:19:56 80.43, -34.00 2.78 73
10 08/21/2012 10:53:43 80.71, -31.72 08/21/2012 10:54:45 80.71, -31.70 0.31 62
11 08/21/2012 11:44:41 -80.72, 135.34 08/21/2012 11:45:30 -80.72, 135.51 2.97 49
12 08/21/2012 12:35:46 80.67, -56.51 08/21/2012 12:36:13 80.67, -56.42 1.56 27
13 08/21/2012 13:26:40 -80.61, 111.92 08/21/2012 13:26:55 -80.61, 111.80 2.29 15
14 08/21/2012 14:17:49 80.63, -81.31 08/21/2012 14:17:41 80.63, -81.15 2.85 8
15 08/21/2012 15:08:42 -80.54, 87.45 08/21/2012 15:08:22 -80.54, 87.39 0.98
